Waarnemingen

Advertentie
Mijn weer
Gela, Italië (16453): temperatuur & dauwpunt: 18.02.2018 13:00:00 - 24.02.2018 13:00:00 (CET)Gela, Italië (16453): windsnelheid: 18.02.2018 13:00:00 - 24.02.2018 13:00:00 (CET)Gela, Italië (16453): windrichting: 18.02.2018 13:00:00 - 24.02.2018 13:00:00 (CET)Gela, Italië (16453): luchtdruk: 18.02.2018 13:00:00 - 24.02.2018 13:00:00 (CET)Gela, Italië (16453): zicht: 18.02.2018 13:00:00 - 24.02.2018 13:00:00 (CET)Gela, Italië (16453): Zonneschijnduur: 18.02.2018 13:00:00 - 24.02.2018 13:00:00 (CET)
Datum & Tijd tt [°C] td [°C] ff [km/u] ff [kn] dd ppp [hPa] vv [km] sd [min]
24.02.2018 13:00:00 13,0 8,3 21 11 W 1008,4 18 60
24.02.2018 12:00:00 13,0 9,0 16 9 ZO - 10 -
24.02.2018 11:00:00 12,0 7,0 9 5 ZW - 10 -
24.02.2018 10:00:00 12,2 7,5 8 4 WNW 1008,4 20 60
24.02.2018 09:00:00 11,0 7,0 4 2 NNO - 10 -
24.02.2018 08:00:00 11,0 7,0 0 0 N - 10 -
24.02.2018 07:00:00 9,0 5,2 5 3 N 1007,4 20 0
24.02.2018 06:00:00 - - - - - - - -
24.02.2018 05:00:00 - - - - - - - -
24.02.2018 04:00:00 - - - - - - - -
24.02.2018 03:00:00 - - - - - - - -
24.02.2018 02:00:00 - - - - - - - -
24.02.2018 01:00:00 - - - - - - - -
24.02.2018 00:00:00 - - - - - - - -
23.02.2018 23:00:00 - - - - - - - -
23.02.2018 22:00:00 - - - - - - - -
23.02.2018 21:00:00 - - - - - - - -
23.02.2018 20:00:00 - - - - - - - -
23.02.2018 19:00:00 10,6 6,2 24 13 W 999,4 14 0
23.02.2018 18:00:00 11,0 7,0 28 15 W - 10 -
23.02.2018 17:00:00 11,0 8,0 24 13 WNW - 10 -
23.02.2018 16:00:00 11,6 8,3 31 17 W 997,3 50 0
23.02.2018 15:00:00 11,0 8,0 26 14 W - 10 -
23.02.2018 14:00:00 12,0 9,0 22 12 W - 8 -
23.02.2018 13:00:00 12,4 9,1 11 6 WZW 997,2 8 0
23.02.2018 12:00:00 13,0 10,0 28 15 ZZW - 8 -
23.02.2018 11:00:00 12,0 9,0 13 7 ZO - 8 -
23.02.2018 10:00:00 12,0 8,7 15 8 Z 997,2 8 0
23.02.2018 09:00:00 12,0 9,0 16 9 OZO - 8 -
23.02.2018 08:00:00 12,0 9,0 15 8 O - 8 -
23.02.2018 07:00:00 12,4 9,4 21 11 OZO 998,1 8 0
23.02.2018 06:00:00 - - - - - - - -
23.02.2018 05:00:00 - - - - - - - -
23.02.2018 04:00:00 - - - - - - - -
23.02.2018 03:00:00 - - - - - - - -
23.02.2018 02:00:00 - - - - - - - -
23.02.2018 01:00:00 - - - - - - - -
23.02.2018 00:00:00 - - - - - - - -
22.02.2018 23:00:00 - - - - - - - -
22.02.2018 22:00:00 - - - - - - - -
22.02.2018 21:00:00 - - - - - - - -
22.02.2018 20:00:00 - - - - - - - -
22.02.2018 19:00:00 11,2 9,0 9 5 O 1001,7 14 0
22.02.2018 18:00:00 11,0 9,0 11 6 ONO - 10 -
22.02.2018 17:00:00 11,0 9,0 13 7 O - 10 -
22.02.2018 16:00:00 11,2 9,3 9 5 NO 1001,7 10 0
22.02.2018 15:00:00 11,0 8,0 11 6 O - 4,0 -
22.02.2018 14:00:00 11,0 8,0 13 7 OZO - 6 -
22.02.2018 13:00:00 10,8 7,5 13 7 OZO 1002,2 4,0 0
22.02.2018 12:00:00 11,0 8,0 15 8 OZO - 6 -
22.02.2018 11:00:00 11,0 7,0 9 5 OZO - 6 -
22.02.2018 10:00:00 10,4 7,1 11 6 OZO 1003,2 4,0 0
22.02.2018 09:00:00 10,0 6,0 11 6 OZO - 10 -
22.02.2018 08:00:00 9,0 6,0 9 5 O - 10 -
22.02.2018 07:00:00 9,2 5,6 11 6 O 1003,1 10 0
22.02.2018 06:00:00 - - - - - - - -
22.02.2018 05:00:00 - - - - - - - -
22.02.2018 04:00:00 - - - - - - - -
22.02.2018 03:00:00 - - - - - - - -
22.02.2018 02:00:00 - - - - - - - -
22.02.2018 01:00:00 - - - - - - - -
22.02.2018 00:00:00 - - - - - - - -
21.02.2018 23:00:00 - - - - - - - -
21.02.2018 22:00:00 - - - - - - - -
21.02.2018 21:00:00 - - - - - - - -
21.02.2018 20:00:00 - - - - - - - -
21.02.2018 19:00:00 11,2 5,7 9 5 NW 1001,7 16 0
21.02.2018 18:00:00 12,0 7,0 24 13 WNW - 10 -
21.02.2018 17:00:00 13,0 7,0 28 15 W - 10 -
21.02.2018 16:00:00 12,8 7,5 28 15 W 1000,2 20 60
21.02.2018 15:00:00 13,0 7,0 26 14 W - 10 -
21.02.2018 14:00:00 13,0 7,0 24 13 W - 10 -
21.02.2018 13:00:00 13,0 7,2 24 13 W 1000,0 20 60
21.02.2018 12:00:00 12,0 7,0 13 7 W - 10 -
21.02.2018 11:00:00 11,0 7,0 15 8 W - 10 -
21.02.2018 10:00:00 11,0 6,4 5 3 NNW 1000,0 20 60
21.02.2018 09:00:00 10,0 7,0 4 2 WNW - 10 -
21.02.2018 08:00:00 10,0 7,0 4 2 NO - 10 -
21.02.2018 07:00:00 9,6 6,7 4 2 ZO 999,0 16 0
21.02.2018 06:00:00 - - - - - - - -
21.02.2018 05:00:00 - - - - - - - -
21.02.2018 04:00:00 - - - - - - - -
21.02.2018 03:00:00 - - - - - - - -
21.02.2018 02:00:00 - - - - - - - -
21.02.2018 01:00:00 - - - - - - - -
21.02.2018 00:00:00 - - - - - - - -
20.02.2018 23:00:00 - - - - - - - -
20.02.2018 22:00:00 - - - - - - - -
20.02.2018 21:00:00 - - - - - - - -
20.02.2018 20:00:00 - - - - - - - -
20.02.2018 19:00:00 12,2 4,7 13 7 W 1004,9 18 0
20.02.2018 18:00:00 13,0 6,0 18 10 W - 10 -
20.02.2018 17:00:00 13,0 7,0 24 13 W - 10 -
20.02.2018 16:00:00 13,0 7,5 15 8 W 1005,6 10 60
20.02.2018 15:00:00 13,0 9,0 13 7 W - 10 -
20.02.2018 14:00:00 12,0 8,0 11 6 WZW - 10 -
20.02.2018 13:00:00 12,0 7,9 5 3 W 1007,9 15 12
20.02.2018 12:00:00 12,0 8,0 13 7 W - 10 -
20.02.2018 11:00:00 13,0 10,0 8 4 WZW - 10 -
20.02.2018 10:00:00 11,4 7,1 4 2 W 1009,2 25 36
20.02.2018 09:00:00 10,0 7,0 0 0 N - 10 -
20.02.2018 08:00:00 9,0 6,0 0 0 N - 10 -
20.02.2018 07:00:00 9,4 6,3 4 2 O 1009,2 25 0
20.02.2018 06:00:00 - - - - - - - -
20.02.2018 05:00:00 - - - - - - - -
20.02.2018 04:00:00 - - - - - - - -
20.02.2018 03:00:00 - - - - - - - -
20.02.2018 02:00:00 - - - - - - - -
20.02.2018 01:00:00 - - - - - - - -
20.02.2018 00:00:00 - - - - - - - -
19.02.2018 23:00:00 - - - - - - - -
19.02.2018 22:00:00 - - - - - - - -
19.02.2018 21:00:00 - - - - - - - -
19.02.2018 20:00:00 - - - - - - - -
19.02.2018 19:00:00 13,0 7,9 5 3 W 1010,9 15 0
19.02.2018 18:00:00 14,0 9,0 42 23 W - 10 -
19.02.2018 17:00:00 14,0 8,0 8 4 WZW - 10 -
19.02.2018 16:00:00 14,0 8,0 9 5 ZW 1011,3 18 30
19.02.2018 15:00:00 14,0 8,0 13 7 WZW - 10 -
19.02.2018 14:00:00 14,0 8,0 16 9 W - 10 -
19.02.2018 13:00:00 15,0 9,1 16 9 W 1012,1 18 60
19.02.2018 12:00:00 14,0 8,0 13 7 WZW - 10 -
19.02.2018 11:00:00 14,0 10,0 8 4 ZW - 10 -
19.02.2018 10:00:00 13,2 10,2 5 3 W 1012,9 12 0
19.02.2018 09:00:00 13,0 10,0 8 4 W - 8 -
19.02.2018 08:00:00 12,0 9,0 0 0 N - 5 -
19.02.2018 07:00:00 12,0 8,8 0 0 N 1012,4 3,0 0
19.02.2018 06:00:00 - - - - - - - -
19.02.2018 05:00:00 - - - - - - - -
19.02.2018 04:00:00 - - - - - - - -
19.02.2018 03:00:00 - - - - - - - -
19.02.2018 02:00:00 - - - - - - - -
19.02.2018 01:00:00 - - - - - - - -
19.02.2018 00:00:00 - - - - - - - -
18.02.2018 23:00:00 - - - - - - - -
18.02.2018 22:00:00 - - - - - - - -
18.02.2018 21:00:00 - - - - - - - -
18.02.2018 20:00:00 - - - - - - - -
18.02.2018 19:00:00 - - - - - - - -
18.02.2018 18:00:00 - - - - - - - -
18.02.2018 17:00:00 - - - - - - - -
18.02.2018 16:00:00 - - - - - - - -
18.02.2018 15:00:00 - - - - - - - -
18.02.2018 14:00:00 - - - - - - - -
18.02.2018 13:00:00 - - - - - - - -

tt = temperatuur
td = dauwpunt
ff = windsnelheid
dd = windrichting
ppp = luchtdruk
vv = zicht
sd = Zonneschijnduur

Weerstations in de omgeving